{"data":{"norad_id":63737,"epoch":"2026-09-21T19:46:15.589920Z","epoch_age_seconds":90292,"freshness":"FRESH","line1":"1 63737U 25088P   26264.82379155  .00000628  00000+0  11140-3 0  9994","line2":"2 63737  51.9020 318.2478 0000406  65.9089 294.1916 14.79936063 76806","mean_motion":14.79936063,"eccentricity":4.06e-5,"inclination_deg":51.902,"raan_deg":318.2478,"arg_perigee_deg":65.9089,"mean_anomaly_deg":294.1916,"bstar":0.0001114,"rev_number":7680,"period_min":97.301500787876,"perigee_km":629.24144894351,"apogee_km":629.81047117586,"semimajor_km":7007.6629600597,"source":"CELESTRAK","updated_at":"2026-09-22T09:00:29.318769Z"}}